This is the latest recevied weather packets stored in our database for station/object DB0MI. If no packets are shown the sender has not sent any weather packets the latest 10 day(s).
| Time | Temp. | Humidity | Pressure | Rain* | Wind** | Luminosity | Snow |
|---|---|---|---|---|---|---|---|
| 1777319529 | 12.22° C | 39% | 1018.3 hPa | 0 mm | - | - | - |
| 1777318930 | 12.78° C | 38% | 1018.4 hPa | 0 mm | - | - | - |
| 1777318329 | 12.78° C | 38% | 1018.3 hPa | 0 mm | - | - | - |
| 1777317729 | 12.78° C | 37% | 1018.5 hPa | 0 mm | - | - | - |
| 1777317129 | 12.78° C | 37% | 1018.5 hPa | 0 mm | - | - | - |
| 1777316529 | 12.78° C | 37% | 1018.6 hPa | 0 mm | - | - | - |
| 1777315929 | 13.33° C | 37% | 1018.6 hPa | 0 mm | - | - | - |
| 1777315329 | 13.33° C | 37% | 1018.6 hPa | 0 mm | - | - | - |
| 1777314729 | 13.33° C | 37% | 1018.7 hPa | 0 mm | - | - | - |
| 1777314129 | 13.89° C | 37% | 1018.8 hPa | 0 mm | - | - | - |
| 1777313529 | 13.89° C | 37% | 1019 hPa | 0 mm | - | - | - |
| 1777312929 | 13.89° C | 37% | 1018.8 hPa | 0 mm | - | - | - |
| 1777312329 | 14.44° C | 37% | 1018.9 hPa | 0 mm | - | - | - |
| 1777311729 | 15° C | 36% | 1019.2 hPa | 0 mm | - | - | - |
| 1777311129 | 15° C | 35% | 1019.1 hPa | 0 mm | - | - | - |
| 1777310529 | 15.56° C | 35% | 1019.3 hPa | 0 mm | - | - | - |
| 1777309929 | 16.11° C | 34% | 1019.3 hPa | 0 mm | - | - | - |
| 1777309329 | 16.67° C | 33% | 1019.3 hPa | 0 mm | - | - | - |
| 1777308729 | 17.22° C | 33% | 1019.3 hPa | 0 mm | - | - | - |
| 1777308129 | 17.78° C | 32% | 1019.3 hPa | 0 mm | - | - | - |
| 1777307529 | 18.33° C | 32% | 1019.2 hPa | 0 mm | - | - | - |
| 1777306930 | 18.89° C | 32% | 1019.6 hPa | 0 mm | - | - | - |
| 1777306330 | 18.33° C | 32% | 1019.5 hPa | 0 mm | - | - | - |
| 1777305730 | 18.33° C | 32% | 1019.4 hPa | 0 mm | - | - | - |
| 1777305130 | 18.33° C | 31% | 1019.6 hPa | 0 mm | - | - | - |
* Rain latest hour (hover to see other rain measurements)
** Current wind speed in m/s (hover to see current wind gust speed)